Powrót do katalogu

INTELSAT 39

AktywnyŁącznośćGEO
NORAD 44476·PAYLOAD· XX

Wystrzelony Aug 6, 2019 z Guiana Space Centre

Loading…

TLE

ŚwieżeSource: CelesTrak SupGP

Epoka: Sep 14, 2026, 00:00 UTC

1 44476C 19049B   26257.00000000  .00000124  00000+0  00000+0 0  2572
2 44476   0.0118 229.0148 0000878 229.2365 316.6872  1.00271895    12

Śledź INTELSAT 39 w czasie rzeczywistym z AllMySat

Download on the App Store